GFSNIL_con_mucape_099.txt.gz
CAPE
16 0 0 0 0 0 0 2 0 27 7 13 6 0 32 25 49 15 9 1 4 0
24 0 0 0 0 0 0 0 0 0 0 0 5 9 19 0 2 12 1 0 3 0
17 0 0 0 0 0 0 0 0 0 0 1 0 10 2 17 2 3 5 7 0 0
5 0 0 0 0 0 0 0 0 0 0 0 0 0 0 0 2 0 0 1 3 0
2 0 0 0 0 0 0 0 0 0 0 0 5 1 0 0 0 5 3 7 8 10
0 0 0 0 0 0 0 0 0 0 0 5 5 5 2 5 0 3 8 6 10 9
16 12 0 0 0 0 0 0 0 0 0 0 0 0 3 13 9 5 0 18 31 15
79 69 30 0 0 0 0 0 0 0 0 0 0 0 0 0 4 12 5 0 4 21
89 98 90 52 10 0 0 0 0 0 0 0 0 0 0 0 0 0 0 0 0 0
55 48 87 92 77 64 55 30 10 7 9 10 14 11 6 0 0 0 0 0 0 0
72 51 58 124 68 73 49 47 40 25 30 16 6 2 1 8 14 23 31 45 49 17
0 7 20 26 48 107 41 28 62 53 14 26 24 11 6 7 13 23 34 32 28 14
0 0 0 0 1 1 10 43 58 37 32 45 10 3 17 30 43 57 50 61 20 33
0 0 0 0 0 0 0 0 0 0 1 14 21 67 43 27 67 64 72 47 47 49

GFSNIL_con_mucape_102.txt.gz
CAPE
209 277 34 2 2 5 12 24 27 51 56 34 6 0 32 41 17 44 12 11 7 4
375 156 6 5 5 7 12 0 3 36 0 1 2 20 12 1 10 36 33 14 4 18
238 146 8 9 4 12 18 0 0 0 0 3 7 6 3 3 4 15 16 1 4 6
208 127 10 11 9 11 19 0 0 0 0 0 0 7 5 1 14 8 6 0 1 5
226 80 9 14 13 9 6 3 0 0 0 0 0 0 0 0 0 2 10 0 0 0
243 5 8 12 16 10 8 3 0 0 0 0 0 0 0 0 0 0 0 0 0 0
138 3 9 14 14 11 7 5 0 9 0 0 0 1 0 0 0 0 4 0 0 3
53 0 0 4 7 10 10 7 7 8 18 12 0 0 0 0 0 4 0 4 2 0
38 33 25 10 2 6 5 7 8 2 17 23 0 0 0 0 0 0 0 27 14 1
13 15 22 64 39 11 11 19 5 8 12 11 0 0 0 0 3 21 15 18 21 10
19 0 4 22 58 65 60 28 10 10 3 3 10 10 5 6 15 24 24 35 40 48
23 7 38 48 61 108 122 136 89 42 38 25 46 24 22 26 53 59 60 18 25 37
1 0 0 0 1 32 96 146 64 38 31 105 155 49 17 43 38 58 79 79 54 53
0 0 0 0 0 0 0 2 1 6 6 20 21 32 53 48 50 52 67 39 41 47

GFSNIL_con_mucape_105.txt.gz
CAPE
1242 1200 851 547 224 113 45 12 13 27 94 50 29 13 0 2 2 9 10 22 42 46
1457 1078 885 532 179 113 61 10 24 25 35 27 33 2 20 17 11 12 7 11 54 28
951 1132 761 395 160 98 10 6 16 14 19 51 39 15 4 9 1 4 6 12 12 30
882 1027 628 254 89 39 6 32 6 12 0 0 0 5 1 2 1 12 13 4 26 19
1108 781 481 222 70 27 2 10 6 11 0 0 2 3 2 0 5 0 0 7 3 0
853 540 289 107 49 11 6 9 7 14 2 0 3 0 0 1 5 2 2 0 0 0
748 610 255 47 7 51 4 5 16 7 8 0 0 6 6 10 9 9 5 1 0 0
388 301 246 22 27 15 8 5 4 7 12 7 1 6 11 4 4 6 4 3 3 4
291 172 141 24 0 6 7 6 24 8 11 34 18 12 0 6 14 17 17 16 13 8
185 164 62 37 9 9 9 15 17 10 8 8 3 4 0 0 0 19 29 24 3 11
111 99 73 60 24 0 0 0 2 8 11 16 3 1 2 0 2 10 1 5 1 0
130 98 64 41 16 7 2 2 6 3 6 3 2 12 21 27 37 20 22 13 12 11
0 7 25 4 14 25 19 18 80 85 70 51 30 61 42 52 38 71 58 128 17 68
0 0 0 0 0 0 0 6 6 0 36 51 38 56 28 29 41 46 27 4 20 26

GFSNIL_con_mucape_108.txt.gz
CAPE
1648 1138 1006 791 538 288 100 57 18 117 22 18 5 1 7 5 0 3 8 2 2 0
1426 1134 1175 818 622 342 171 23 0 31 74 14 1 0 0 1 1 18 8 38 2 6
1247 1227 1102 820 546 355 215 64 0 2 15 33 10 10 4 0 1 5 1 5 12 17
1164 1137 1065 730 565 365 160 37 0 5 11 22 27 8 4 0 2 12 1 3 12 4
920 979 1011 866 483 292 142 0 1 35 3 11 11 6 0 0 0 4 0 14 7 8
723 877 889 823 377 354 77 4 8 54 14 0 0 1 5 8 3 1 1 2 0 5
702 823 998 789 406 354 30 12 4 6 5 0 0 1 1 9 11 2 5 24 2 2
816 715 862 504 243 188 38 24 35 4 5 9 10 3 5 5 14 6 5 7 5 2
482 654 681 592 229 114 26 13 8 43 10 4 3 7 0 6 15 16 5 4 6 12
537 579 445 476 154 94 8 12 8 8 3 19 3 2 0 0 10 9 6 5 8 7
417 507 456 398 166 72 7 1 6 5 6 2 5 0 0 0 2 2 8 9 14 7
128 186 219 249 135 99 4 1 10 4 6 4 4 0 2 3 0 0 0 1 6 3
0 7 24 52 15 16 7 4 0 0 0 1 0 6 4 8 14 15 22 19 15 11
0 0 0 0 0 0 5 0 0 0 1 18 48 61 71 68 38 25 73 27 26 7

GFSNIL_con_mucape_111.txt.gz
CAPE
1022 866 1206 1064 907 507 315 316 155 219 126 46 4 1 0 0 9 10 0 2 3 6
1066 1044 1107 1091 896 781 441 195 151 201 153 43 3 3 0 0 5 5 0 0 1 9
1229 1231 1016 1002 844 724 654 359 156 147 89 49 0 5 14 6 0 6 10 14 3 3
1134 1119 1041 929 963 1112 728 449 128 108 190 151 25 0 10 3 6 13 1 4 10 11
989 902 778 764 809 1030 736 323 163 30 8 49 5 13 10 6 12 7 13 4 22 7
693 758 646 723 852 600 697 307 162 42 14 48 35 22 29 4 6 0 2 4 15 8
553 586 496 545 833 649 552 322 160 17 47 27 23 29 18 8 10 10 0 0 0 23
383 435 562 588 697 793 857 165 68 17 25 17 3 5 6 6 3 4 5 5 9 16
78 297 425 350 709 611 309 256 39 0 5 7 4 5 0 5 16 16 11 20 8 11
147 388 426 405 265 427 406 95 6 0 0 5 5 0 0 0 7 2 5 7 10 0
200 160 329 302 113 190 249 217 73 3 0 0 5 1 0 0 1 15 15 12 13 18
93 204 244 295 162 135 34 23 94 4 1 1 0 4 4 13 0 3 6 4 7 8
38 50 64 4 0 34 29 22 1 26 2 29 29 39 20 36 46 30 15 15 17 9
0 0 0 0 8 3 0 5 0 0 1 0 49 60 50 26 17 6 15 13 9 5

GFSNIL_con_mucape_114.txt.gz
CAPE
1276 1228 1013 957 922 1094 1149 1051 982 426 347 325 189 4 2 6 0 0 1 3 13 45
1032 1203 1057 960 787 772 898 916 644 310 355 368 142 3 225 35 1 1 1 7 2 8
746 1062 1131 929 795 1027 960 772 479 245 231 269 113 191 52 18 14 0 1 13 3 2
754 805 1023 851 944 1108 818 770 529 353 264 177 149 24 53 45 0 2 0 0 7 11
811 773 800 758 857 1001 881 712 684 514 161 168 202 63 46 4 42 4 21 0 11 5
864 854 655 595 618 829 836 742 673 479 182 137 123 58 80 8 6 1 2 2 15 14
240 297 423 408 380 449 611 625 567 534 177 76 55 66 21 33 9 11 7 9 18 19
51 311 305 199 241 381 484 407 400 360 239 46 10 52 72 24 9 4 25 2 0 3
0 15 93 253 258 243 331 432 263 375 378 46 0 7 11 12 22 14 38 27 6 14
23 39 25 163 208 291 300 308 256 310 78 16 1 0 1 0 7 7 9 4 13 3
25 20 27 139 27 129 46 201 313 285 34 26 0 0 0 0 0 6 5 5 7 9
30 19 11 8 183 104 46 14 18 92 20 40 10 0 0 0 0 0 5 5 0 2
0 0 0 0 4 0 31 2 3 9 10 2 6 3 2 3 0 12 13 15 8 16
0 0 0 0 0 0 0 0 0 0 5 1 4 13 11 21 20 28 34 28 12 22

GFSNIL_con_mucape_117.txt.gz
CAPE
1874 1882 1418 562 344 920 867 791 780 667 680 628 565 362 421 196 103 118 150 37 5 0
569 1161 1352 1266 1060 1024 885 675 712 701 801 804 685 351 733 383 262 40 21 0 0 1
28 25 730 1174 1060 966 916 792 656 658 889 925 593 255 506 255 4 7 50 0 0 9
13 28 450 790 969 846 785 679 567 778 941 779 335 249 336 56 4 16 10 4 9 29
127 433 662 668 707 642 630 593 466 582 546 422 266 315 240 14 8 5 7 7 0 3
357 652 673 854 584 623 596 473 427 495 445 409 297 171 149 63 11 32 5 8 1 19
80 576 428 661 833 666 459 353 341 345 391 357 174 118 127 67 18 23 11 3 2 3
23 28 102 178 297 259 193 282 385 376 314 230 150 112 70 38 78 58 10 3 17 22
13 9 12 21 69 61 50 126 197 275 164 143 75 77 19 13 13 23 25 4 8 37
4 16 10 29 33 73 100 133 203 153 118 136 95 49 14 19 15 19 15 3 22 39
1 9 7 12 24 8 26 17 244 41 163 92 87 216 3 9 0 0 3 3 6 9
0 0 5 2 0 1 6 15 5 5 37 55 11 29 0 7 0 0 0 3 5 7
0 0 0 0 0 0 0 0 7 25 28 48 0 15 2 1 0 0 0 0 0 6
0 0 0 0 0 0 0 0 0 0 0 0 0 1 4 9 0 0 0 0 0 0

GFSNIL_con_mucape_120.txt.gz
CAPE
1695 1390 1824 1527 1537 1413 1092 601 274 129 527 814 747 527 249 354 369 282 276 134 48 165
816 1262 1386 1535 1281 1293 1009 229 33 85 344 628 741 576 430 269 294 288 240 161 71 56
29 35 295 1079 1325 1256 1281 265 146 177 510 494 674 592 570 494 564 308 272 68 40 54
29 27 3 34 91 743 946 913 671 622 458 472 522 628 629 609 731 437 307 64 7 9
20 35 75 266 651 631 762 603 711 591 493 451 401 366 566 958 392 324 188 2 4 22
6 61 182 280 530 726 559 629 384 403 336 326 168 197 378 336 217 320 193 9 2 2
73 22 160 158 356 534 624 205 337 376 259 360 135 151 188 230 579 173 55 24 7 1
9 18 53 156 296 238 429 274 147 317 504 435 80 86 107 409 150 145 71 41 23 11
5 6 45 34 34 34 58 97 138 43 13 55 78 171 165 132 93 84 82 43 58 24
0 0 5 21 13 6 1 20 59 36 35 39 4 92 41 71 83 66 48 30 29 21
0 6 15 5 6 2 7 0 11 4 13 19 11 36 89 90 55 93 51 50 20 32
0 0 0 1 15 3 1 2 2 4 11 26 31 31 73 26 56 32 36 14 21 46
0 0 0 0 0 0 0 0 0 3 0 0 0 0 0 0 30 18 32 2 37 0
0 0 0 0 0 0 0 0 0 0 0 0 0 1 1 0 0 0 4 0 8 2

GFSNIL_con_mucape_123.txt.gz
CAPE
1438 1363 1476 1664 1500 1355 1247 1290 1106 840 852 855 823 734 698 630 493 290 297 256 155 94
997 1069 1156 1228 1295 1137 961 1105 1003 886 854 617 431 212 280 603 659 449 279 482 165 75
170 298 476 636 669 857 949 914 864 840 664 589 426 125 181 516 532 514 237 231 181 185
3 5 26 56 75 168 323 724 811 1018 656 317 173 106 234 644 292 504 428 243 197 273
22 37 72 76 69 155 238 113 442 631 732 445 180 50 199 324 294 477 473 482 359 161
42 74 66 120 181 278 243 497 487 408 398 537 724 686 382 313 186 154 431 504 639 291
4 6 83 26 36 88 217 343 481 385 356 309 330 538 477 211 106 79 170 519 246 143
3 18 13 13 47 21 101 281 203 179 220 251 80 70 128 30 131 162 92 375 221 125
0 16 10 18 36 25 39 49 123 144 132 145 138 69 58 92 56 61 81 198 136 162
0 0 5 15 17 29 31 17 7 1 21 23 23 18 35 31 93 69 60 68 88 66
0 0 0 1 1 3 12 3 1 5 4 4 6 3 32 0 2 27 44 50 55 41
0 0 0 0 0 0 0 0 1 4 0 0 0 0 0 15 20 0 2 43 23 42
0 0 0 0 0 0 0 0 0 0 0 0 0 0 0 7 0 9 21 3 18 39
0 0 0 0 0 0 0 0 0 0 0 0 0 0 0 0 0 0 0 0 0 4

GFSNIL_con_mucape_126.txt.gz
CAPE
1157 1308 1359 1920 1463 1488 1355 1610 1663 1887 1891 1646 1015 1293 1631 1848 1582 1600 1791 1509 1015 829
752 896 953 921 945 794 973 1189 1352 1428 1410 1584 1079 1275 1313 1125 896 965 1517 1854 1750 1229
574 545 463 304 331 353 596 642 695 1171 1250 1499 1228 819 829 636 777 775 716 761 893 560
66 36 5 1 0 0 0 54 276 791 986 1096 1039 986 1159 681 572 527 459 293 397 508
16 8 0 0 0 0 16 128 190 327 564 417 530 1170 896 576 293 213 163 286 514 471
0 13 18 27 45 88 106 146 254 409 238 250 316 611 568 420 160 79 86 196 319 365
8 27 33 26 93 127 175 348 398 363 501 361 244 107 164 356 176 297 329 243 348 126
6 10 14 60 20 22 93 95 336 332 421 356 392 229 176 245 282 252 293 250 265 222
0 0 11 13 11 22 7 8 101 227 119 229 54 51 73 66 61 105 112 44 79 169
0 0 0 0 0 3 1 2 25 25 6 0 2 1 5 39 43 98 68 43 67 13
0 0 0 0 0 0 0 0 0 0 0 0 0 0 3 2 0 0 26 1 5 19
0 0 0 0 0 0 0 0 0 0 0 0 0 0 1 0 0 2 7 0 1 2
0 0 0 0 0 0 0 0 0 0 0 0 0 0 0 0 0 1 0 3 0 0
0 0 0 0 0 0 0 0 0 0 0 0 0 0 0 0 0 0 0 0 0 0

GFSNIL_con_mucape_129.txt.gz
CAPE
984 964 724 140 58 974 1786 1794 1927 2283 1872 1512 1723 2054 1828 1691 1584 1499 1606 1381 913 1306
690 412 168 47 489 768 1392 1342 1657 1434 1570 1483 1151 1382 1535 1452 1735 1647 1570 1806 1848 1365
556 537 691 714 653 496 710 637 638 1069 975 1300 1188 960 736 914 1365 1354 1428 1432 1605 1201
111 127 192 132 29 36 10 0 8 80 294 839 989 982 747 703 1055 1238 1043 975 1019 1312
6 6 0 13 0 0 0 4 29 95 107 301 323 404 533 717 829 790 859 775 727 547
0 1 0 8 2 9 21 21 58 68 108 215 368 336 330 507 618 645 859 641 737 349
59 15 8 0 0 2 18 16 44 106 230 255 243 113 222 251 487 437 539 335 471 235
1 0 0 6 13 20 2 13 76 111 140 142 201 217 318 183 244 393 416 263 288 165
0 0 0 0 12 2 1 3 13 19 4 50 124 139 20 22 122 169 285 210 219 197
0 0 0 0 0 0 0 0 0 0 0 0 0 2 0 0 26 15 19 10 82 84
0 0 0 0 0 0 0 0 0 0 0 0 0 0 0 0 0 0 0 0 1 10
0 0 0 0 0 0 0 0 0 0 0 0 0 0 0 0 0 0 0 0 0 3
0 0 0 0 0 0 0 0 0 0 0 0 0 0 0 0 0 0 0 0 0 0
0 0 0 0 0 0 0 0 0 0 0 0 0 0 0 0 0 0 0 0 0 0